{"data":{"norad_id":48042,"intl_designator":"2021-025A","name":"ONEWEB-0115","alt_names":[],"object_type":"PAYLOAD","status":"ACTIVE","operator":null,"country":"UK","launch_date":"2021-03-25","launch_site_code":"VOSTO","launch_vehicle":null,"mission":null,"orbit_class":"UNKNOWN","rcs_meters":null,"size_class":null,"mass_kg":null,"dimensions":null,"purposes":["comms"],"wikipedia_slug":null,"has_3d_model":false,"image_url":null,"decayed_at":null,"tle_current":{"epoch":"2026-05-25T00:25:31.274112Z","epoch_age_seconds":80444,"freshness":"FRESH","line1":"1 48042U 21025A   26145.01772308  .00000250  00000+0  64958-3 0  9995","line2":"2 48042  87.8946 324.8386 0001821  90.0184 270.1154 13.13468939250554","mean_motion":13.13468939,"eccentricity":0.0001821,"inclination_deg":87.8946,"raan_deg":324.8386,"arg_perigee_deg":90.0184,"mean_anomaly_deg":270.1154,"bstar":0.00064958,"rev_number":25055,"period_min":109.63335007346,"perigee_km":1208.3877283891,"apogee_km":1211.1512439314,"semimajor_km":7587.9064861603,"source":"CELESTRAK","updated_at":"2026-05-25T13:38:22.387330Z"}}}